sat.trackr.live / text

‹ back to catalog

STARLINK-35863

NORAD 67170 · 2025-303H

PAYLOAD ACTIVE UNKNOWN

§ Identity

Operator
Country
US
Launch date
2025-12-17
Launch site
AFETR
Launch vehicle
Mass (kg)
RCS (m²)

Purposes: comms

External: N2YO · Heavens-Above · Gunter

§ Orbital elements

Epoch: 2026-05-24T13:10:05.144160Z

Period
94.27 min
Inclination
42.9999°
Eccentricity
0.0001372
Mean motion
15.27584737 rev/d
Perigee alt
482.1 km
Apogee alt
484.0 km
Semi-major
6,861.2 km
B*
3.6253e-4
RAAN
242.5796°
Arg perigee
266.2902°
Mean anomaly
93.7792°
Rev number
2,433

§ Raw data

STARLINK-358631 67170U 25303H   26144.54867065  .00009728  00000+0  36253-3 0  99992 67170  42.9999 242.5796 0001372 266.2902  93.7792 15.27584737 24338

JSON: /api/v1/satellites/67170 · /tle

For live sub-satellite position, see the globe view (requires WebGL).

§ Visibility from observer

Set your observer location to see the next 7 days of passes ≥ 10°. The values pass through the URL so the page stays shareable.

No JS? Fill the form by hand. The geolocation button needs JavaScript.